When you browse on this site, cookies collect data to enhance your experience and personalize the content and advertising you see.
Visit our Privacy Policy to learn more. By continuing to use the site, you agree to this use of cookies and data.
  • En España
  • Lista de países
  • Para 7 días
  • Temperatura del agua
  • El tiempo en el mapa
  • Informadores
  • user-avatar
    Iniciar sesión

    Tiempo cada hora Djibouti

    Hoy, 22 Octubre, Martes

    Tiempo Temperatura Precipitaciones Viento Presión Humedad
    00:00 +30°C° 0 mm 2 mps 756 mmHg 60%
    01:00 +30°C° 0 mm 2 mps 756 mmHg 61%
    02:00 +30°C° 0 mm 2 mps 756 mmHg 62%
    03:00 +29°C° 0 mm 2 mps 756 mmHg 64%
    04:00 +29°C° 0 mm 2 mps 756 mmHg 65%
    05:00 +29°C° 0 mm 2 mps 757 mmHg 65%
    06:00 +28°C° 0 mm 2 mps 757 mmHg 66%
    07:00 +30°C° 0 mm 3 mps 757 mmHg 58%
    08:00 +31°C° 0 mm 3 mps 758 mmHg 49%
    09:00 +34°C° 0 mm 4 mps 758 mmHg 41%
    10:00 +35°C° 0 mm 4 mps 758 mmHg 37%
    11:00 +36°C° 0 mm 4 mps 757 mmHg 34%
    12:00 +37°C° 0 mm 5 mps 757 mmHg 30%
    13:00 +37°C° 0 mm 5 mps 756 mmHg 31%
    14:00 +36°C° 0 mm 4 mps 755 mmHg 31%
    15:00 +36°C° 0 mm 4 mps 754 mmHg 32%
    16:00 +35°C° 0 mm 4 mps 755 mmHg 35%
    17:00 +34°C° 0 mm 3 mps 755 mmHg 39%
    18:00 +33°C° 0 mm 3 mps 755 mmHg 43%
    19:00 +33°C° 0 mm 3 mps 756 mmHg 46%
    20:00 +31°C° 0 mm 3 mps 756 mmHg 49%
    21:00 +31°C° 0 mm 2 mps 757 mmHg 52%
    22:00 +30°C° 0 mm 2 mps 757 mmHg 53%
    23:00 +30°C° 0 mm 2 mps 757 mmHg 55%

    Mañana, 23 Octubre, Miércoles

    Tiempo Temperatura Precipitaciones Viento Presión Humedad
    00:00 +30°C° 0 mm 2 mps 757 mmHg 56%
    01:00 +29°C° 0 mm 1 mps 756 mmHg 57%
    02:00 +29°C° 0 mm 1 mps 756 mmHg 58%
    03:00 +28°C° 0 mm 1 mps 755 mmHg 59%
    04:00 +28°C° 0 mm 1 mps 756 mmHg 59%
    05:00 +28°C° 0 mm 1 mps 757 mmHg 59%
    06:00 +28°C° 0 mm 1 mps 757 mmHg 59%
    07:00 +29°C° 0 mm 1 mps 757 mmHg 52%
    08:00 +31°C° 0 mm 1 mps 758 mmHg 45%
    09:00 +32°C° 0 mm 2 mps 758 mmHg 38%
    10:00 +35°C° 0 mm 2 mps 757 mmHg 34%
    11:00 +36°C° 0 mm 3 mps 757 mmHg 30%
    12:00 +37°C° 0 mm 4 mps 757 mmHg 26%
    13:00 +37°C° 0 mm 4 mps 756 mmHg 27%
    14:00 +37°C° 0 mm 4 mps 755 mmHg 28%
    15:00 +36°C° 0 mm 4 mps 755 mmHg 29%
    16:00 +35°C° 0 mm 4 mps 755 mmHg 32%
    17:00 +34°C° 0 mm 3 mps 755 mmHg 35%
    18:00 +33°C° 0 mm 3 mps 755 mmHg 39%
    19:00 +32°C° 0 mm 2 mps 756 mmHg 41%
    20:00 +32°C° 0 mm 2 mps 756 mmHg 43%
    21:00 +31°C° 0 mm 2 mps 757 mmHg 46%
    22:00 +31°C° 0 mm 1 mps 757 mmHg 48%
    23:00 +30°C° 0 mm 1 mps 757 mmHg 50%

    Pasado mañana, 24 Octubre, Jueves

    Tiempo Temperatura Precipitaciones Viento Presión Humedad
    00:00 +30°C° 0 mm 1 mps 756 mmHg 52%
    01:00 +30°C° 0 mm 1 mps 756 mmHg 54%
    02:00 +29°C° 0 mm 1 mps 756 mmHg 56%
    03:00 +29°C° 0 mm 1 mps 756 mmHg 57%
    04:00 +28°C° 0 mm 1 mps 757 mmHg 58%
    05:00 +28°C° 0 mm 1 mps 757 mmHg 59%
    06:00 +28°C° 0 mm 1 mps 757 mmHg 60%
    07:00 +29°C° 0 mm 2 mps 758 mmHg 54%
    08:00 +31°C° 0 mm 2 mps 758 mmHg 47%
    09:00 +32°C° 0 mm 2 mps 758 mmHg 40%
    10:00 +35°C° 0 mm 3 mps 758 mmHg 36%
    11:00 +36°C° 0 mm 4 mps 757 mmHg 32%
    12:00 +37°C° 0 mm 5 mps 757 mmHg 28%
    13:00 +37°C° 0 mm 5 mps 756 mmHg 28%
    14:00 +37°C° 0 mm 5 mps 756 mmHg 28%
    15:00 +37°C° 0 mm 5 mps 756 mmHg 28%
    16:00 +35°C° 0 mm 4 mps 756 mmHg 32%
    17:00 +34°C° 0 mm 4 mps 756 mmHg 37%
    18:00 +33°C° 0 mm 4 mps 756 mmHg 41%
    19:00 +33°C° 0 mm 3 mps 756 mmHg 44%
    20:00 +31°C° 0 mm 2 mps 757 mmHg 47%
    21:00 +31°C° 0 mm 2 mps 757 mmHg 50%
    22:00 +30°C° 0 mm 2 mps 757 mmHg 52%
    23:00 +30°C° 0 mm 2 mps 757 mmHg 54%

    25 Octubre, Viernes

    Tiempo Temperatura Precipitaciones Viento Presión Humedad
    00:00 +29°C° 0 mm 1 mps 757 mmHg 56%
    01:00 +29°C° 0 mm 1 mps 757 mmHg 58%
    02:00 +29°C° 0 mm 1 mps 756 mmHg 60%
    03:00 +28°C° 0 mm 1 mps 756 mmHg 62%
    04:00 +28°C° 0 mm 1 mps 757 mmHg 63%
    05:00 +28°C° 0 mm 1 mps 757 mmHg 64%
    06:00 +28°C° 0 mm 2 mps 757 mmHg 65%
    07:00 +29°C° 0 mm 2 mps 757 mmHg 59%
    08:00 +30°C° 0 mm 2 mps 758 mmHg 52%
    09:00 +33°C° 0 mm 3 mps 758 mmHg 46%
    10:00 +34°C° 0 mm 3 mps 758 mmHg 39%
    11:00 +36°C° 0 mm 3 mps 757 mmHg 33%
    12:00 +37°C° 0 mm 4 mps 756 mmHg 26%
    13:00 +37°C° 0 mm 4 mps 756 mmHg 27%
    14:00 +36°C° 0 mm 4 mps 755 mmHg 29%
    15:00 +36°C° 0 mm 5 mps 754 mmHg 30%
    16:00 +35°C° 0 mm 4 mps 755 mmHg 33%
    17:00 +34°C° 0 mm 3 mps 755 mmHg 36%
    18:00 +32°C° 0 mm 2 mps 755 mmHg 40%
    19:00 +31°C° 0 mm 2 mps 756 mmHg 42%
    20:00 +31°C° 0 mm 2 mps 756 mmHg 45%
    21:00 +30°C° 0 mm 2 mps 757 mmHg 47%
    22:00 +30°C° 0 mm 2 mps 756 mmHg 50%
    23:00 +30°C° 0 mm 2 mps 756 mmHg 52%

    26 Octubre, Sábado

    Tiempo Temperatura Precipitaciones Viento Presión Humedad
    00:00 +29°C° 0 mm 2 mps 756 mmHg 55%
    01:00 +29°C° 0 mm 2 mps 756 mmHg 56%
    02:00 +29°C° 0 mm 2 mps 756 mmHg 58%
    03:00 +28°C° 0 mm 2 mps 756 mmHg 59%
    04:00 +28°C° 0 mm 2 mps 756 mmHg 61%
    05:00 +28°C° 0 mm 2 mps 756 mmHg 62%
    06:00 +27°C° 0 mm 2 mps 757 mmHg 63%
    07:00 +29°C° 0 mm 2 mps 757 mmHg 59%
    08:00 +30°C° 0 mm 2 mps 758 mmHg 54%
    09:00 +31°C° 0 mm 2 mps 758 mmHg 49%
    10:00 +34°C° 0 mm 3 mps 757 mmHg 44%
    11:00 +35°C° 0 mm 3 mps 757 mmHg 38%
    12:00 +36°C° 0 mm 3 mps 756 mmHg 33%
    13:00 +36°C° 0 mm 4 mps 755 mmHg 34%
    14:00 +36°C° 0 mm 4 mps 755 mmHg 35%
    15:00 +36°C° 0 mm 4 mps 754 mmHg 35%
    16:00 +35°C° 0 mm 4 mps 754 mmHg 41%
    17:00 +34°C° 0 mm 3 mps 754 mmHg 46%
    18:00 +31°C° 0 mm 3 mps 755 mmHg 51%
    19:00 +31°C° 0 mm 3 mps 755 mmHg 52%
    20:00 +31°C° 0 mm 2 mps 755 mmHg 53%
    21:00 +31°C° 0 mm 2 mps 756 mmHg 54%
    22:00 +30°C° 0 mm 2 mps 756 mmHg 56%
    23:00 +30°C° 0 mm 2 mps 756 mmHg 58%

    27 Octubre, Domingo

    Tiempo Temperatura Precipitaciones Viento Presión Humedad
    00:00 +30°C° 0 mm 1 mps 755 mmHg 60%
    01:00 +29°C° 0 mm 1 mps 755 mmHg 62%
    02:00 +29°C° 0 mm 1 mps 755 mmHg 64%
    03:00 +29°C° 0 mm 1 mps 755 mmHg 66%
    04:00 +28°C° 0 mm 1 mps 755 mmHg 67%
    05:00 +28°C° 0 mm 1 mps 755 mmHg 69%
    06:00 +28°C° 0 mm 1 mps 756 mmHg 70%
    07:00 +29°C° 0 mm 1 mps 756 mmHg 63%
    08:00 +30°C° 0 mm 1 mps 757 mmHg 55%
    09:00 +32°C° 0 mm 1 mps 757 mmHg 48%
    10:00 +34°C° 0 mm 2 mps 756 mmHg 41%
    11:00 +36°C° 0 mm 2 mps 756 mmHg 34%
    12:00 +37°C° 0 mm 2 mps 755 mmHg 28%
    13:00 +37°C° 0 mm 3 mps 755 mmHg 28%
    14:00 +37°C° 0 mm 4 mps 754 mmHg 29%
    15:00 +36°C° 0 mm 5 mps 753 mmHg 29%
    16:00 +35°C° 0 mm 4 mps 753 mmHg 33%
    17:00 +34°C° 0 mm 4 mps 754 mmHg 37%
    18:00 +33°C° 0 mm 3 mps 754 mmHg 41%
    19:00 +31°C° 0 mm 3 mps 754 mmHg 44%
    20:00 +31°C° 0 mm 2 mps 755 mmHg 47%
    21:00 +30°C° 0 mm 2 mps 755 mmHg 51%
    22:00 +30°C° 0 mm 2 mps 755 mmHg 53%
    23:00 +30°C° 0 mm 2 mps 755 mmHg 56%

    28 Octubre, Lunes

    Tiempo Temperatura Precipitaciones Viento Presión Humedad
    00:00 +29°C° 0 mm 2 mps 755 mmHg 58%
    01:00 +29°C° 0 mm 2 mps 755 mmHg 60%
    02:00 +28°C° 0 mm 2 mps 755 mmHg 62%
    03:00 +28°C° 0 mm 1 mps 754 mmHg 64%
    04:00 +28°C° 0 mm 1 mps 755 mmHg 65%
    05:00 +27°C° 0 mm 1 mps 755 mmHg 66%
    06:00 +27°C° 0 mm 2 mps 756 mmHg 66%
    07:00 +29°C° 0 mm 2 mps 756 mmHg 59%
    08:00 +30°C° 0 mm 2 mps 756 mmHg 52%
    09:00 +33°C° 0 mm 3 mps 757 mmHg 45%
    10:00 +34°C° 0 mm 3 mps 756 mmHg 42%
    11:00 +35°C° 0 mm 4 mps 756 mmHg 39%
    12:00 +36°C° 0 mm 5 mps 755 mmHg 35%
    13:00 +36°C° 0 mm 5 mps 755 mmHg 36%
    14:00 +35°C° 0 mm 5 mps 754 mmHg 37%
    15:00 +35°C° 0 mm 5 mps 754 mmHg 38%
    16:00 +34°C° 0 mm 4 mps 754 mmHg 43%
    17:00 +33°C° 0 mm 4 mps 754 mmHg 47%
    18:00 +31°C° 0 mm 3 mps 755 mmHg 52%
    19:00 +31°C° 0 mm 3 mps 755 mmHg 55%
    20:00 +30°C° 0 mm 3 mps 755 mmHg 58%
    21:00 +30°C° 0 mm 3 mps 755 mmHg 60%
    22:00 +30°C° 0 mm 3 mps 755 mmHg 61%
    23:00 +29°C° 0 mm 2 mps 755 mmHg 62%
    Mostrar más